This is the latest recevied weather packets stored in our database for station/object K1BWE-1. If no packets are shown the sender has not sent any weather packets the latest 1 day(s).
| Time | Temp. | Humidity | Pressure | Rain* | Wind** | Luminosity | Snow |
|---|---|---|---|---|---|---|---|
| 1777977149 | 13.33° C | 97% | 1012.7 hPa | 3.05 mm | 0.45 m/s, 357° | 0 W/m² | - |
| 1777976846 | 13.33° C | 97% | 1013.3 hPa | 1.27 mm | 0.89 m/s, 271° | 0 W/m² | - |
| 1777976544 | 13.33° C | 97% | 1013.4 hPa | 1.78 mm | 0.45 m/s, 336° | 0 W/m² | - |
| 1777976242 | 13.33° C | 97% | 1013.4 hPa | 1.78 mm | 0.45 m/s, 24° | 0 W/m² | - |
| 1777975938 | 13.33° C | 97% | 1013.6 hPa | 0 mm | 0.45 m/s, 305° | 0 W/m² | - |
| 1777975635 | 13.33° C | 97% | 1013.6 hPa | 0 mm | 0 m/s | 0 W/m² | - |
| 1777975332 | 13.33° C | 97% | 1013.6 hPa | 0 mm | 0.45 m/s, 297° | 0 W/m² | - |
| 1777975027 | 13.33° C | 97% | 1013.2 hPa | 0 mm | 0 m/s | 0 W/m² | - |
| 1777974726 | 13.33° C | 97% | 1013.3 hPa | 1.27 mm | 0 m/s | 0 W/m² | - |
| 1777974421 | 13.33° C | 97% | 1013.3 hPa | 1.27 mm | 0 m/s | 0 W/m² | - |
| 1777974117 | 13.33° C | 96% | 1013.2 hPa | 1.78 mm | 0 m/s | 0 W/m² | - |
| 1777973814 | 13.33° C | 96% | 1013.7 hPa | 1.78 mm | 0 m/s | 0 W/m² | - |
| 1777973511 | 13.33° C | 96% | 1013.7 hPa | 1.27 mm | 0 m/s | 0 W/m² | - |
| 1777973208 | 13.33° C | 96% | 1014.1 hPa | 1.27 mm | 0 m/s | 0 W/m² | - |
| 1777972907 | 13.33° C | 96% | 1013.8 hPa | 0 mm | 0 m/s | 0 W/m² | - |
| 1777972603 | 13.33° C | 96% | 1013.9 hPa | 1.78 mm | 0 m/s | 0 W/m² | - |
| 1777972301 | 13.33° C | 96% | 1013.9 hPa | 1.78 mm | 0 m/s | 0 W/m² | - |
| 1777971999 | 13.33° C | 96% | 1013.7 hPa | 1.78 mm | 0 m/s | 0 W/m² | - |
| 1777971697 | 13.33° C | 96% | 1014.3 hPa | 1.78 mm | 0 m/s | 0 W/m² | - |
| 1777971394 | 13.33° C | 96% | 1014 hPa | 1.27 mm | 0.45 m/s, 288° | 0 W/m² | - |
| 1777971092 | 12.78° C | 96% | 1014.2 hPa | 1.27 mm | 0 m/s | 0 W/m² | - |
| 1777970789 | 13.33° C | 96% | 1014.4 hPa | 1.78 mm | 0 m/s | 0 W/m² | - |
| 1777970488 | 13.33° C | 96% | 1014.7 hPa | 3.05 mm | 0 m/s | 0 W/m² | - |
| 1777970185 | 13.33° C | 96% | 1014.8 hPa | 1.27 mm | 0 m/s | 0 W/m² | - |
| 1777969881 | 13.33° C | 96% | 1015.1 hPa | 1.78 mm | 0.45 m/s, 208° | 0 W/m² | - |
* Rain latest hour (hover to see other rain measurements)
** Current wind speed in m/s (hover to see current wind gust speed)